Location: Chuathbaluk
(61.5726°N, 159.2454°W)
Time: 23:10:18
(UTC+00:00)

Explorer 7 - Pass Details

Date: 10 December 2021
Orbit: 483 x 674 km, 50.3° (Epoch: 21 January)

Event Time Altitude Azimuth Distance (km) Brightness Sun altitude
Exits shadow 16:55:01 11° 224° (SW) 1,803 9.2 -17.2°
Maximum altitude 16:57:36 18° 184° (S) 1,413 9.0 -16.9°
Drops below altitude 10° 17:00:22 10° 142° (SE) 1,800 10.3 -16.6°
Sets 17:03:05 0° 122° (ESE) 2,653 11.9 -16.3°
